Location: Estebanvela
(41.3624°N, 3.3324°W)
Time: 05:44:35
(UTC+00:00)

Daily predictions for brighter satellites

Satellite Brightness Start Highest point End
(mag) Time Altitude Azimuth Time Altitude Azimuth Time Altitude Azimuth
Gbstr 26 Del rocket 4.0 00:01:43 10° NW 00:07:28 76° NE 00:09:37 45° ESE
Cosmos 2227 Rocket 2.6 00:03:02 10° NNW 00:08:36 52° ENE 00:09:27 48° E
S3M 4.1 00:08:55 10° NNW 00:15:07 61° W 00:15:45 58° WSW
GEOS 3 Rocket 4.2 00:11:09 10° NNE 00:16:17 54° NW 00:17:31 44° W
Cosmos 1655 Rocket 4.0 00:25:42 64° SW 00:26:34 73° W 00:32:58 10° N
Cosmos 1125 Rocket 3.5 00:30:24 74° ENE 00:30:24 74° ENE 00:35:21 10° NNE
Cosmos 1315 Rocket 4.1 00:27:49 10° N 00:30:17 37° N 00:30:17 37° N
Cosmos 1932 4.4 00:31:35 68° SW 00:32:27 82° WNW 00:38:50 10° NNE
Meteor 1-26 Rocket 4.4 00:31:03 10° N 00:36:21 55° ENE 00:36:45 54° E
Geosat 3.9 00:31:47 10° NNE 00:36:36 82° N 00:36:36 82° N
ALOS 2 4.4 00:38:29 22° WNW 00:38:29 22° WNW 00:40:55 10° NW
CENTAUR R/B 4.5 00:37:30 11° E 00:37:32 11° E 00:39:02 10° E
H-2A R/B 4.2 00:41:17 23° ENE 00:41:17 23° ENE 00:44:14 10° NNE
Cosmos 1048 Rocket 4.2 00:37:29 10° NNW 00:42:19 60° W 00:42:19 60° W
Cosmos 2058 Rocket 3.6 00:40:28 10° N 00:44:04 57° NNW 00:44:04 57° NNW
Nadezhda 2 Rocket 4.4 00:47:03 67° SSE 00:47:57 80° E 00:54:21 10° N
Cosmos 614 Rocket 4.3 00:43:34 10° N 00:48:32 54° ENE 00:48:55 52° E
Cosmos 2263 Rocket 2.3 00:52:10 10° NNW 00:57:48 67° ENE 00:58:41 57° ESE
Cosmos 192 4.4 01:00:29 75° NE 01:00:29 75° NE 01:05:04 10° NNE
USA 32 4.3 01:00:07 56° E 01:00:20 56° E 01:05:27 10° NNE
Cosmos 2369 3.7 01:01:32 65° ESE 01:01:43 65° ESE 01:07:18 10° NNE
CZ-2C R/B 2.9 00:59:34 10° NNE 01:04:01 71° ENE 01:04:01 71° ENE
Cosmos 2082 4.5 00:58:52 10° NNW 01:04:21 47° ENE 01:06:25 33° ESE
Cosmos 1602 Rocket 4.2 01:07:34 50° ENE 01:07:34 50° ENE 01:11:14 10° NNE
Cosmos 2298 Rocket 4.1 01:07:44 65° ESE 01:07:47 65° ESE 01:13:02 10° NNE
Cosmos 1758 Rocket 3.9 01:09:37 65° NNE 01:09:37 65° NNE 01:13:26 10° N
Cosmos 1626 Rocket 4.0 01:11:27 58° NNW 01:11:27 58° NNW 01:15:09 10° N
SL-16 R/B 3.4 01:13:38 28° ESE 01:14:17 29° ESE 01:19:04 10° NE
Cosmos 2333 Rocket 4.0 01:15:34 18° ESE 01:16:43 19° E 01:20:32 10° ENE
Cosmos 2297 Rocket 4.0 01:15:42 10° WNW 01:18:18 17° W 01:18:18 17° W
Cosmos 2219 3.1 01:14:10 10° NNW 01:19:52 82° ENE 01:20:47 63° SE
USA 290 4.5 01:18:04 10° NNW 01:19:34 24° NNW 01:19:34 24° NNW
Cosmos 44 Rocket 4.5 01:25:06 29° ESE 01:25:06 29° ESE 01:28:45 10° NE
ATLAS 2AS CENTAUR R/B 2.6 01:19:09 10° NNW 01:25:56 81° NE 01:29:12 33° SE
Cosmos 1980 Rocket 2.7 01:25:56 43° W 01:26:54 48° WNW 01:32:21 10° NNE
USA 215 3.4 01:30:24 49° SW 01:30:24 49° SW 01:36:42 10° WNW
Cosmos 921 Rocket 3.3 01:26:48 10° N 01:31:10 62° ENE 01:31:10 62° ENE
Cosmos 2151 3.1 01:35:22 66° NE 01:35:22 66° NE 01:39:04 10° NNE
Cosmos 1386 Rocket 4.5 01:34:46 55° SW 01:35:54 65° W 01:41:58 10° N
NPP 4.3 01:31:13 10° NNE 01:36:22 44° E 01:37:32 38° SE
CZ-2C R/B 2.7 01:37:53 58° WSW 01:38:14 59° W 01:43:46 10° NNW
Lacrosse 5 rocket 2.4 01:34:49 10° NW 01:37:12 35° NW 01:37:12 35° NW
Resurs 1-4 Rocket 3.7 01:41:54 10° NE 01:46:21 27° E 01:48:25 21° SE
Cosmos 1076 Rocket 4.5 01:46:03 36° ESE 01:46:30 37° E 01:50:25 10° NNE
Cosmos 2227 Rocket 3.7 01:47:57 10° NW 01:51:13 21° W 01:51:13 21° W
Cosmos 1844 Rocket 3.9 01:48:21 10° N 01:53:36 39° ENE 01:58:47 10° SE
Cosmos 1238 Rocket 3.1 01:51:08 10° N 01:56:16 84° W 01:56:48 71° SSW
Cosmos 2237 4.2 01:58:13 55° SW 01:59:30 78° WNW 02:05:13 10° NNE
CZ-2D R/B 3.4 01:55:20 10° NE 01:59:58 32° E 02:02:07 23° SE
IDEFIX/ARIANE 42P 2.4 01:55:54 10° NNE 02:01:05 87° E 02:02:09 58° S
Meteor 1-19 Rocket 4.2 01:56:50 10° N 02:02:24 78° E 02:04:33 40° SSE
H-2A R/B 2.7 02:00:38 10° NNE 02:04:43 44° E 02:05:29 40° SE
Cosmos 1953 Rocket 3.6 02:04:16 58° SE 02:04:48 65° E 02:09:05 10° NNE
Cosmos 2360 Rocket 3.2 02:03:04 29° SE 02:04:59 37° ESE 02:10:06 10° NE
Cosmos 2221 2.9 02:01:11 10° NNW 02:04:55 48° WNW 02:04:55 48° WNW
SeaSat 1 3.8 02:02:24 10° ESE 02:06:51 37° NE 02:11:20 10° N
Cosmos 2278 3.6 02:08:06 51° SSW 02:09:37 83° ESE 02:15:17 10° NNE
Cosmos 1346 Rocket 2.7 02:09:58 70° NNW 02:09:58 70° NNW 02:13:21 10° N
Cosmos 1733 3.8 02:14:22 38° ENE 02:14:22 38° ENE 02:16:42 10° NNE
H-2A R/B 4.1 02:16:38 20° WNW 02:16:38 20° WNW 02:18:28 10° NW
Cosmos 2219 Rocket 3.7 02:16:52 18° SE 02:19:45 28° ESE 02:24:25 10° NE
Molniya-1 3.4 02:19:21 61° W 02:19:46 70° NW 02:25:55 10° NE
Cosmos 1269 Rocket 4.1 02:15:12 10° NNW 02:20:31 78° ENE 02:23:36 26° SSE
Cosmos 2074 Rocket 4.5 02:19:36 24° SSE 02:23:12 56° E 02:29:16 10° NNE
Cosmos 1825 Rocket 4.0 02:22:59 42° W 02:23:17 43° WNW 02:27:28 10° N
CENTAUR R/B 2.2 02:24:36 43° SSW 02:26:32 86° ESE 02:33:14 10° NE
Cosmos 2322 Rocket 2.3 02:24:50 38° S 02:26:58 69° ESE 02:32:34 10° NNE
H-2A R/B 4.5 02:25:16 10° ENE 02:27:29 13° E 02:29:40 10° ESE
MOZ.5/SAFIR/RUBIN 5/SL-8 3.7 02:30:29 48° SSW 02:31:37 66° WSW 02:36:17 10° NNW
OAO 3 Rocket 3.7 02:33:03 37° SSE 02:33:03 37° SSE 02:37:02 10° ESE
ADEOS II 2.9 02:27:53 10° NNE 02:32:55 45° E 02:35:56 22° SSE
ATLAS 5 CENTAUR R/B 2.4 02:29:28 10° NNW 02:34:05 62° NE 02:39:48 10° SE
ALOS 3.1 02:31:00 10° NNE 02:35:22 43° E 02:37:41 24° SSE
Meteor 1-25 Rocket 4.3 02:36:57 37° SW 02:39:02 61° WNW 02:44:42 10° N
NOSS 3-2 (A) 3.6 02:37:39 31° S 02:39:38 47° ESE 02:45:02 10° NE
Cosmos 2263 Rocket 3.9 02:37:38 10° WNW 02:40:18 16° W 02:40:18 16° W
Envisat 3.6 02:41:44 10° NNE 02:46:40 50° E 02:49:58 20° SSE
Meteor 1-27 Rocket 3.8 02:42:33 10° NNW 02:48:25 64° W 02:51:36 27° SSW
Milstar 3 Cent rocket 3.9 02:49:25 20° S 02:49:37 20° S 02:53:41 10° SE
USA 276 3.3 02:51:56 26° NW 02:52:25 28° NNW 02:54:44 10° NE
SL-16 R/B 3.8 02:48:31 10° SE 02:54:18 42° ENE 03:00:08 10° N
Cosmos 2181 Rocket 4.0 02:49:24 10° NNW 02:55:28 63° W 02:59:11 24° SSW
NOAA 11 4.2 02:51:21 10° NNE 02:56:48 77° ESE 03:00:17 23° S
FENGYUN 3A 4.1 02:52:30 10° N 02:57:42 49° WNW 03:00:12 28° SW
SL-16 R/B 2.9 02:55:28 25° WSW 02:58:09 40° WNW 03:03:29 10° N
Uosat 12 SS-18 rocket 4.1 02:57:37 36° SW 02:59:18 70° NW 03:03:57 10° NNE
Cosmos 2333 Rocket 2.4 02:57:35 29° SW 03:00:27 62° WNW 03:06:06 10° NNE
Cosmos 1743 4.3 03:01:59 17° WNW 03:01:59 17° WNW 03:04:13 10° NNW
Cosmos 1842 Rocket 3.8 02:58:02 10° NNW 03:02:18 51° W 03:03:56 32° SSW
CZ-3 R/B 4.4 02:11:21 10° WSW 03:02:30 57° SSW 03:15:31 10° ESE
Cosmos 1707 2.4 03:01:49 10° NNW 03:05:01 53° W 03:05:36 45° SW
Cosmos 44 Rocket 4.3 03:03:42 22° W 03:05:59 33° NW 03:10:17 10° NNE
Meteor 2-4 Rocket 3.6 03:06:04 10° NNW 03:11:22 66° W 03:15:34 16° S
KORONAS-FOTON 4.4 03:12:13 10° NNW 03:15:23 32° W 03:15:57 30° WSW
ATLAS 2AS CENTAUR R/B 3.9 03:11:38 10° WNW 03:15:59 18° WSW 03:16:31 18° WSW
Cosmos 1066 Rocket 4.1 03:13:42 10° N 03:19:05 90° SW 03:24:26 10° S
CZ-2C R/B 4.4 03:19:00 10° NE 03:23:17 27° E 03:27:35 10° SSE
Cosmos 1140 Rocket 4.0 03:19:50 10° NW 03:24:33 37° WSW 03:27:52 18° SSW
Cosmos 1842 3.7 03:21:35 10° NNW 03:24:41 33° W 03:25:38 27° SW
COSMOS 2428 4.0 03:19:57 10° S 03:25:06 36° ESE 03:30:15 10° NE
Resurs 1-4 Rocket 2.8 03:21:18 10° N 03:26:11 39° WNW 03:29:27 19° SW
Nadezhda 3 Rocket 3.9 03:20:38 10° NNW 03:26:49 71° W 03:32:55 10° S
AQUA 3.8 03:22:25 10° NNE 03:27:08 85° ESE 03:31:05 15° SSW
SJ 16-02 3.9 03:29:13 10° N 03:32:41 24° ENE 03:36:09 10° ESE
Cosmos 1536 2.8 03:33:09 12° S 03:36:31 72° E 03:40:14 10° NNE
METEOR-M 4.1 03:31:48 10° NNE 03:37:11 87° ESE 03:42:29 10° SSW
Cosmos 1844 Rocket 3.5 03:32:29 10° NW 03:37:18 30° WSW 03:41:29 13° SSW
Cosmos 1151 Rocket 2.9 03:33:48 10° NNW 03:38:05 70° W 03:42:18 10° S
ATLAS CENTAUR R/B 1.2 03:37:04 18° SSW 03:39:38 69° ESE 03:43:24 10° NE
H-2A R/B 3.9 03:37:01 10° NNW 03:39:47 17° WNW 03:41:58 12° W
Cosmos 407 Rocket 3.7 03:34:42 10° NNW 03:39:48 51° WSW 03:44:54 10° S
CZ-2D R/B 3.1 03:35:19 10° N 03:39:52 32° WNW 03:43:23 15° WSW
Cosmos 1844 4.5 03:36:56 10° NW 03:41:54 31° WSW 03:46:53 10° SSW
SeaSat 1 3.2 03:40:07 11° SSW 03:44:15 30° WSW 03:48:31 10° NW
Cosmos 2327 Rocket 4.4 03:41:29 10° SSW 03:47:34 75° W 03:53:44 10° N
Cosmos 2360 Rocket 3.2 03:44:48 14° WSW 03:48:57 32° WNW 03:53:58 10° N
ARIANE 6 FM1 Upper Stage 3.1 03:46:47 16° WSW 03:49:44 48° NW 03:53:36 10° NNE
Delta 2 Rocket 4.0 03:50:48 14° WSW 03:54:04 36° S 03:57:57 10° ESE
ARGOS 4.4 03:50:15 10° NNE 03:55:22 41° E 04:00:27 10° SSE
NOSS 2-2 (C) 2.9 03:55:15 15° SW 03:58:01 64° NW 04:01:02 10° NNE
Cosmos 405 Rocket 2.7 03:57:45 13° SSW 04:00:24 42° WNW 04:03:31 10° N
Cosmos 2219 Rocket 2.8 03:58:35 12° SW 04:03:26 41° WNW 04:08:44 10° N
H-2A R/B 3.2 04:02:12 10° N 04:06:05 82° WNW 04:09:56 10° SSW
Meteor 1-28 Rocket 3.1 04:03:49 10° S 04:07:05 51° W 04:10:22 10° NNW
H-2A R/B 2.0 04:02:24 10° N 04:07:17 67° WNW 04:12:07 10° SSW
Iridium 4 Rocket 3.7 04:04:20 10° S 04:10:07 85° W 04:15:37 10° N
Cosmos 1766 Rocket 3.5 04:05:56 10° S 04:10:12 89° E 04:14:32 10° N
BREEZE M DEB (TANK) 4.1 04:06:58 10° WNW 04:10:32 22° N 04:12:35 10° NE
Cosmos 2322 Rocket 3.9 04:07:30 10° W 04:11:31 20° NW 04:15:33 10° N
ALOS 3.9 04:08:49 10° NNW 04:12:02 19° WNW 04:15:15 10° WSW
ADEOS II 3.5 04:08:05 10° NNW 04:12:10 24° WNW 04:16:14 10° WSW
Meteor 2-9 Rocket 4.4 04:06:57 10° S 04:12:48 87° E 04:18:39 10° N
In-Cosmos 22 4.1 04:07:55 10° NNW 04:13:11 65° W 04:18:31 10° S
Cosmos 1954 Rocket 4.0 04:08:30 10° NNW 04:13:40 69° WSW 04:18:50 10° S
Cosmos 676 Rocket 4.0 04:08:36 10° NNW 04:13:48 90° WSW 04:18:59 10° SSE
Lacrosse 4 Rocket 2.3 04:10:24 10° S 04:14:14 44° ESE 04:18:11 10° NE
COSMOS 2455 4.3 04:09:56 10° S 04:15:19 35° ESE 04:20:43 10° NE
OAO 3 Rocket 4.0 04:11:10 10° WSW 04:15:19 31° SSW 04:19:26 10° SE
TIMED 4.4 04:12:21 10° NNW 04:16:37 77° WSW 04:20:52 10° SSE
ATLAS 5 CENTAUR R/B 3.3 04:13:05 10° WNW 04:16:48 20° WSW 04:21:02 10° SSW
CENTAUR R/B 4.2 04:13:27 10° W 04:18:11 23° NNW 04:23:46 10° NNE
USA 281 4.2 04:11:55 10° NE 04:18:13 47° ESE 04:24:30 10° S
NOSS 3-2 (C) 3.2 04:15:45 10° SW 04:20:43 71° NW 04:26:38 10° NNE
UNK 3.7 04:16:21 10° S 04:20:53 76° WSW 04:25:27 10° NNW
Cosmos 1821 Rocket 4.2 04:15:35 10° S 04:21:40 76° E 04:27:52 10° N
Cosmos 2251 Rocket 4.2 04:17:54 10° NW 04:22:38 34° W 04:27:19 10° SSW
ACS3 Solar Sail 3.7 04:18:12 10° NNE 04:23:24 30° E 04:28:42 10° SSE
Okean 3 Rocket 4.4 04:20:51 10° S 04:25:15 55° E 04:29:40 10° NNE
